Tracking 19651 objects as of 23-Apr-2019
HD Live streaming from Space Station
objects crossing your sky now

QUIKSCAT

Track QUIKSCAT now!
10-day predictions
QUIKSCAT is classified as:


NORAD ID: 25789
Int'l Code: 1999-034A
Perigee: 664.9 km
Apogee: 804.9 km
Inclination: 98.6 °
Period: 99.4 minutes
Semi major axis: 7105 km
RCS: 2.9895 m2 (large)
Launch date: June 20, 1999
Source: United States (US)
Launch site: AIR FORCE WESTERN TEST RANGE (AFWTR)

Detailed snapshots of the winds swirling above the world's oceans.
aabbcc
Your satellite tracking list
Your tracking list is empty




NASA's NSSDC Master Catalog

Two Line Element Set (TLE):
1 25789U 99034A   19112.13699366  .00000012  00000-0  15819-4 0  9994
2 25789  98.5996 307.8844 0098498 328.4592  31.0720 14.49343508 33802
Source of the keplerian elements: AFSPC